Regional Weather Roundup
Issued by NWS

Home | Current Version | Previous Version | Text Only | Print | Product List | Glossary Off
Versions: 1 2 3 4 5 6 7 8 9 10 11 12 13 14 15 16 17 18 19 20 21 22 23 24 25 26 27 28 29 30 31 32 33 34 35 36 37 38 39 40 41 42 43 44 45 46 47 48 49 50

000
ASUS43 KIND 260909
RWRIN

WEATHER ROUNDUP FOR INDIANA
NATIONAL WEATHER SERVICE INDIANAPOLIS IN
500 AM EDT WED APR 26 2017

NOTE: "FAIR" INDICATES FEW OR NO CLOUDS BELOW 12,000 FEET WITH NO
SIGNIFICANT WEATHER AND/OR OBSTRUCTIONS TO VISIBILITY.

* - STATION DOES NOT REPORT WEATHER SUCH AS PRECIPITATION OR FOG.

+ - STATION NOT QUALITY CONTROLLED BY THE NATIONAL WEATHER SERVICE.
    USE DATA WITH CAUTION...ESPECIALLY DEWPOINT AND RELATIVE
    HUMIDITY OBSERVATIONS.

INZ001>003-010>013-019-020-261000-
NORTHWEST INDIANA

CITY           SKY/WX    TMP DP  RH WIND       PRES   REMARKS
GARY /AIRPORT/ CLOUDY    67  54  62 SE10G17   29.52F
KNOX *+        CLOUDY    63  36  36 S13       29.56F
LA PORTE +     PTCLDY    62  55  77 S8        29.57S
MICHIGAN CITY+ CLOUDY    63  54  72 SE6       29.56S
MONTICELLO +   MOCLDY    64  55  73 SE7       29.57S
RENSSELAER +   PTCLDY    64  54  68 SE14G20   29.55F
VALPARAISO     MOCLDY    66  56  70 S9        29.55F

$$

LMZ046-743>745-261000-
SOUTHERN LAKE MICHIGAN

STATION/POSITION TIME  TEMP    WIND        PRES    WAVE
                       AIR SEA DIR/SP/G            HT
                 (UTC) (F)     (DEG/KT/KT) (MB)    (FT)
BURNS HARBOR     0840   67     160/ 10/ 17 1000.7S
MICHIGAN CITY    0840   65     140/ 11/ 13   N/A

$$

INZ004-005-014>016-021>024-261000-
NORTH CENTRAL INDIANA

CITY           SKY/WX    TMP DP  RH WIND       PRES   REMARKS
GOSHEN         CLEAR     63  53  70 S9        29.60F
LOGANSPORT +   CLOUDY    61  54  77 SE9       29.61S
PERU/GRISSOM   PTCLDY    61  58  87 S12       29.60F
ROCHESTER +    MOCLDY    63  55  77 S9        29.60F
SOUTH BEND     CLOUDY    63  55  75 S10       29.59F
WARSAW +       CLEAR     61  54  77 S6        29.61S

$$

INZ006>009-017-018-025>027-261000-
NORTHEAST INDIANA

CITY           SKY/WX    TMP DP  RH WIND       PRES   REMARKS
ANGOLA *+      CLEAR     57  55  94 SE5       29.64S
AUBURN +       CLOUDY    59  52  77 CALM      29.65S
FORT WAYNE     PTCLDY    58  53  84 SE8       29.64F
HUNTINGTON +   CLEAR     59  55  88 SE6       29.63F
KENDALLVILLE + MOCLDY    58  55  87 SE8       29.64S

$$

INZ028-029-035-036-043>045-051>053-261000-
WEST CENTRAL INDIANA

CITY           SKY/WX    TMP DP  RH WIND       PRES   REMARKS
CRAWFORDSVL +  CLOUDY    60  55  85 SE10      29.59F
GREENCASTLE +  PTCLDY    59  54  82 S8        29.61S
LAFAYETTE      CLOUDY    63  56  78 SE10      29.56F
TERRE HAUTE    CLOUDY    62  55  77 SE12      29.58F

$$

INZ030>032-037>040-046>048-054>057-064-065-261000-
CENTRAL INDIANA

CITY           SKY/WX    TMP DP  RH WIND       PRES   REMARKS
CP ATTERBURY + CLEAR     59  54  82 SE3       29.66S
FISHERS *+     CLEAR     59  57  94 SE8       29.63F
FRANKFORT +    MOCLDY    64  57  79 S8        29.62S
GREENWOOD *+   CLEAR     61  55  80 SE9       29.65S
INDIANAPOLIS   PTCLDY    62  55  77 S13       29.62S
-EAGLE CREEK   CLEAR     63  55  75 S6        29.62S
KOKOMO +       PTCLDY    61  55  81 S12       29.62F
MARION +       CLEAR     59  54  82 S9        29.64S
MT COMFORT *+  CLEAR     59  54  82 S9        29.64F
SHELBYVILLE    CLEAR     62  54  74 SE12      29.64F
ZIONSVILLE +   PTCLDY    59  55  84 SE8       29.63F

$$

INZ033-034-041-042-049-050-058-059-261000-
EAST CENTRAL INDIANA

CITY           SKY/WX    TMP DP  RH WIND       PRES   REMARKS
MUNCIE         CLEAR     63  55  75 S10       29.65F
RICHMOND +     CLEAR     54  52  94 SE8       29.70S

$$

INZ060-061-067>069-081>083-085>088-261000-
SOUTHWEST INDIANA

CITY           SKY/WX    TMP DP  RH WIND       PRES   REMARKS
EVANSVILLE     CLOUDY    63  56  78 S6        29.62S
HUNTINGBURG *+ CLEAR     62  56  80 SE7       29.64S
WASHINGTON +   CLOUDY    63  54  72 MISG      29.61S

$$

INZ062-063-066-070>080-084-089>092-261000-
SOUTH CENTRAL AND SOUTHEAST INDIANA

CITY           SKY/WX    TMP DP  RH WIND       PRES   REMARKS
BEDFORD +      CLEAR     59  54  82 SE6       29.64S
BLOOMINGTON    CLEAR     60  54  80 SE8       29.63S
MADISON *+     PTCLDY    59  54  82 SE5       29.70F
NORTH VERNON + PTCLDY    57  54  88 SE6       29.68S
SEYMOUR +      CLEAR     59  55  88 SE6       29.66F

$$





USA.gov is the U.S. government's official web portal to all federal, state and local government web resources and services.